User: anonymous   Login
Location: Fort Wayne
(41.1310°N, 85.1290°W)
Time: 22:46:30
(UTC-04:00)
Language:

COSMOS 2428 - Orbit

View from above orbital plane
View from above orbital plane
View from above satellite
View from above satellite

Ground track
Ground track

The orbit data is extracted from the following two-line orbital elements,

1 31792U 07029A   16182.68986262  .00000137  00000-0  10000-3 0  9990
2 31792  70.9374  69.9217 0007651  79.2802 311.9482 14.12363148464448
Epoch (UTC): 30 June 2016 16:33:24
Eccentricity: 0.0007651
inclination: 70.9374°
perigee height: 846 km
apogee height: 857 km
right ascension of ascending node: 69.9217°
argument of perigee: 79.2802°
revolutions per day: 14.12363148
mean anomaly at epoch: 311.9482°
orbit number at epoch: 46444

The dashed part of the orbit path shows where the satellite is in the earth's shadow,  

DLR